This is the latest recevied weather packets stored in our database for station/object VE3GIF. If no packets are shown the sender has not sent any weather packets the latest 10 day(s).
| Time | Temp. | Humidity | Pressure | Rain* | Wind** | Luminosity | Snow |
|---|---|---|---|---|---|---|---|
| 1777993304 | 15.56° C | 67% | 1001.5 hPa | 0 mm | - | - | - |
| 1777993003 | 15.56° C | 68% | 1001.3 hPa | 0 mm | - | - | - |
| 1777992403 | 15° C | 68% | 1000.9 hPa | 0 mm | - | - | - |
| 1777992102 | 14.44° C | 69% | 1000.9 hPa | 0 mm | - | - | - |
| 1777991802 | 14.44° C | 68% | 1000.6 hPa | 0 mm | - | - | - |
| 1777991202 | 15.56° C | 68% | 1000.7 hPa | 0 mm | - | - | - |
| 1777990901 | 16.67° C | 66% | 1000.6 hPa | 0 mm | - | - | - |
| 1777990601 | 17.78° C | 71% | 1000.5 hPa | 0 mm | - | - | - |
| 1777990000 | 17.78° C | 71% | 1000.6 hPa | 0 mm | - | - | - |
| 1777989700 | 17.78° C | 71% | 1000.5 hPa | 0 mm | - | - | - |
| 1777989400 | 17.78° C | 70% | 1000.3 hPa | 0 mm | - | - | - |
| 1777989100 | 17.78° C | 71% | 1000.4 hPa | 0 mm | - | - | - |
| 1777988799 | 17.78° C | 71% | 1000.3 hPa | 0 mm | - | - | - |
| 1777987898 | 17.22° C | 71% | 1000.3 hPa | 0 mm | - | - | - |
| 1777987298 | 16.67° C | 72% | 1000.1 hPa | 0 mm | - | - | - |
| 1777986998 | 16.11° C | 73% | 1000 hPa | 0 mm | - | - | - |
| 1777986697 | 16.11° C | 73% | 999.8 hPa | 0 mm | - | - | - |
| 1777986397 | 16.11° C | 73% | 999.7 hPa | 0 mm | - | - | - |
| 1777986097 | 16.11° C | 72% | 999.5 hPa | 0 mm | - | - | - |
| 1777985796 | 16.11° C | 71% | 999.6 hPa | 0 mm | - | - | - |
| 1777985496 | 16.67° C | 70% | 999.5 hPa | 0 mm | - | - | - |
| 1777985196 | 16.67° C | 72% | 999.4 hPa | 0 mm | - | - | - |
| 1777984896 | 16.67° C | 72% | 999.3 hPa | 0 mm | - | - | - |
| 1777984595 | 16.67° C | 73% | 998.8 hPa | 0 mm | - | - | - |
| 1777984295 | 16.67° C | 73% | 998.8 hPa | 0 mm | - | - | - |
* Rain latest hour (hover to see other rain measurements)
** Current wind speed in m/s (hover to see current wind gust speed)